COSMOS 1275 DEB, 12732

Orbit data source: Space-Track

COSMOS 1275 DEB, 12732 is space debris in LEO originally from a launch on Thu, 04 Jun 1981 UTC launched from the Plesetsk Missile And Space Complex (PKMTR). Debris objects in space refer to the collection of defunct objects orbiting the Earth. Examples of debris include non-operational satellites, rocket bodies, and fragments generated from explosions, collisions, or faulty payload assembly.

Loading next visibility...
Identifier
12732, 1981-053BZ
Orbit
LEO
Country
Flag of CISCIS
Related business
Manufacturer
Unknown
Mission
Spacecraft
Bus & Motor
Unknown
Mass
Unknown
Launch date (UTC)
1981-06-04 (45 years ago)
Launch vehicle
Unknown
Launch site
Plesetsk Missile And Space Complex (PKMTR)
Object type
Payload
Rocket body
Debris
Shape & HBR
Unknown shape, 0.1 m
Radar Cross Section
Small (<0.1 m²)

Expand to show TLE details & history
Last TLE update: 11 hours ago

TLE from 11 hours ago
0 COSMOS 1275 DEB
1 12732U 81053BZ  26034.42507689  .00000575  00000-0  43647-3 0  9992
2 12732  82.9903 165.0073 0052902 122.2892 303.4673 13.91481184252548
Epoch: 2026-02-03T10:12Z
TLE epoch observation values (Epoch: 2026-02-03T10:12:06.643Z)
Latitude
64.42329°
Longitude
-106.82032°
Altitude
913.395 km
Speed
7.412 km/s
True Right ascension
11h 59m 15s
True Declination
64° 17' 31"
Sunlit
Object was in full shadow at epoch
Visualization orbit readout
Latitude
Unknown
Longitude
Unknown
Altitude
Unknown
Speed
Unknown
Apparent Right ascension
Unknown
Apparent Declination
Unknown
Sunlit
N/A
Visualization observer readout
Local Sidereal Time
22:37:52
Azimuth
Unknown
Elevation
Unknown
Doppler factor
Unknown
Orbital elements
Apogee altitude
959.18 km
Perigee altitude
881.957 km
Semi-major axis
7,298.706 km
Eccentricity
0.00529
Inclination
82.9903°
RAAN
165.0073°
Arg. of periapsis
122.2892°
True anomaly
302.95975°
Mean anomaly
303.4673°
Eccentric anomaly
303.21371°
Mean motion
3.48076 °/min
Orbital period
103.43 mins
BSTAR
0.00043647
Loading maneuver chart data...
Computing Atmospheric mass density...

Documentation

Showing up to 5 results
|